Other Surface Observations
Issued by NWS

Home | Current Version | Previous Version | Text Only | Print | Product List | Glossary On
Versions: 1 2 3 4 5 6 7 8 9 10 11 12 13 14 15 16 17 18 19 20 21 22 23 24 25 26 27 28 29 30 31 32 33 34 35 36 37 38 39 40 41 42 43 44 45 46 47 48 49 50
088
SXUS52 KTAE 292318
OSOTAE
OSOTAE
North Florida/South Alabama/Southwest Georgia Weather Roundup
National Weather Service Tallahassee Florida
700 PM EDT SUN MAY 29 2016

Note: "fair" indicates few or no clouds below 12,000 feet with no
significant weather and/or obstructions to visibility.

!FLZ017-115-028-034-025-300000
...North Florida...

CITY           SKY/WX    TMP DP  RH WIND       PRES   REMARKS
TALLAHASSEE    MOSUNNY   93  57  29 N7        29.99F HX  91
APALACHICOLA   CLOUDY    85  72  65 W9        30.01F HX  91
PERRY          MOSUNNY   87  71  58 SW9       30.00S HX  92
CROSS CITY       N/A     87  71  58 W7        29.99F HX  93
JACKSONVILLE   MOSUNNY   86  62  44 NW7       29.98F
$$

!FLZ112-006-005-002-011-300000
...Florida Panhandle...

CITY           SKY/WX    TMP DP  RH WIND       PRES   REMARKS
MARIANNA       CLOUDY    88  67  49 NW7       29.99F HX  91
BONIFAY        NOT AVBL
PANAMA CITY NW LGT RAIN  77  71  82 S9        30.02R
TYNDALL AFB    SUNNY     83  70  64 W13       30.01F
TYND DRONE APT FAIR      82  72  71 W9        30.01F
DE FUNIAK SPR  CLOUDY    86  67  53 CALM      30.03R
EGLIN AFB      PTSUNNY   85  65  52 SW7       30.02S
DESTIN         SUNNY     85  69  58 W8        30.02S
HURLBURT       PTSUNNY   83  64  53 W12G21    30.01F
CRESTVIEW      PTSUNNY   82  73  74 SW6       30.03S
PENSACOLA      LGT RAIN  78  71  79 NW6       30.03F
$$

!ALZ063-066-300000
...South Alabama...

CITY           SKY/WX    TMP DP  RH WIND       PRES   REMARKS
DOTHAN         MOSUNNY   89  59  36 N5        30.04F
OZARK CAIRNS   MOSUNNY   87  65  47 VRB3      30.01F
FT RUCKER HELI SUNNY     89  64  43 W3        30.00F HX  90
RUCKER HELI 3  NOT AVBL
RUCKER HELI 2  NOT AVBL
FLORALA APT    SUNNY     77  71  82 CALM      30.04S
ANDALUSIA      SUNNY     91  66  43 NE3       30.01F HX  93
TROY           SUNNY     91  63  39 N8        30.03S HX  92
EUFALA         FAIR      91  62  37 VRB5      30.00S HX  91
MOBILE         CLOUDY    80  66  62 VRB3      30.05S
$$

!GAZ120>161-300000
...Southwest and South Central Georgia...

CITY           SKY/WX    TMP DP  RH WIND       PRES   REMARKS
THOMASVILLE    FAIR      88  57  35 N6        30.01F
BAINBRIDGE     SUNNY     90  61  37 CALM      30.00F
MOODY AFB      MOSUNNY   86  62  43 N6        30.00S
VALDOSTA       MOSUNNY   88  60  38 VRB3      30.00F
MOULTRIE       SUNNY     88  59  37 N6        30.01S
BLAKELY        MOSUNNY   91  63  38 CALM      30.00F HX  92
ALBANY         SUNNY     90  58  33 NW7       30.01F
TIFTON         CLOUDY    83  65  55 NE5       30.02R
FITZGERALD     MOCLDY    82  67  59 NW3       30.05S
CORDELE        FAIR      87  68  53 E7        30.02F HX  90
AMERICUS       FAIR      86  61  42 E6        30.02F
HOMERVILLE     FAIR      86  64  48 CALM      30.01S
$$

!GMZ750-755-770-775-300000
...Coastal and Buoy Obs...

STATION/POSITION TIME  TEMP    WIND        PRES    VSBY  WAVE
                       AIR SEA DIR/SP/G                  HT/PER
                 (UTC) (F)     (DEG/KT/KT) (MB)    (MI)  (FT/S)
KEATON BEACH     2300   81     270/ 10/ 11 1015.7F
CEDAR KEY        2300   81     290/  8/ 10 1016.4F
C TOWER          2300   79     280/ 11/ 12 1017.0F
APALACHICOLA BUO 2250   80 81  300/  6/  8 1016.3F         1
PANAMA CITY BUOY 2250   81 83  270/  8/  8 1017.1F         1/ 7
MOBILE BUOY      2300   80 80  190/  4/  6 1017.0F
ORANGE BCH AL BU 2250   81 82     CALM     1016.3F         1/ 5
$$




USA.gov is the U.S. government's official web portal to all federal, state and local government web resources and services.